Location: Utrecht
(52.0830°N, 5.1330°E)
Time: 18:36:44
(UTC+02:00)

Daily predictions for brighter satellites

Satellite Brightness Start Highest point End
(mag) Time Altitude Azimuth Time Altitude Azimuth Time Altitude Azimuth
Cosmos 2218 Rocket 4.3 22:21:35 10° N 22:27:36 52° ENE 22:33:37 10° SSE
Lacrosse 5 rocket 2.4 22:25:20 10° WNW 22:29:50 52° NNE 22:34:24 10° E
Cosmos 2369 4.1 22:25:03 10° NW 22:30:45 65° WSW 22:36:23 10° SSE
Cosmos 1606 Rocket 3.9 22:28:35 10° NNW 22:32:53 64° W 22:37:09 10° S
Okean 1-7 Rocket 4.1 22:29:27 10° SSW 22:33:55 65° WNW 22:38:27 10° N
SL-16 R/B 3.7 22:30:36 10° NNW 22:35:31 29° NE 22:40:25 10° E
SPOT 5 2.6 22:31:26 10° SSE 22:35:47 86° ENE 22:40:15 10° NNW
Meteor 1-4 Rocket 2.8 22:33:43 10° N 22:37:15 52° ENE 22:40:44 10° SSE
Cosmos 1452 Rocket 3.6 22:32:30 10° NNW 22:37:49 90° ENE 22:43:06 10° SSE
Okean 2 3.6 22:36:27 10° SSW 22:40:32 74° WNW 22:44:38 10° N
Cosmos 1726 Rocket 4.0 22:37:36 10° NNW 22:41:53 62° W 22:46:08 10° S
USA 229 DEB 3.9 22:35:14 10° NW 22:42:22 81° NE 22:49:39 10° SE
USA 229 3.9 22:35:20 10° NW 22:42:28 80° NE 22:49:45 10° SE
YAOGAN 6 4.4 22:39:36 10° SSW 22:42:39 27° W 22:45:44 10° NW
Cosmos 1025 Rocket 3.7 22:39:27 10° SSW 22:43:39 56° WNW 22:47:53 10° N
SL-24 DEB 4.3 22:39:41 10° S 22:44:18 80° E 22:49:00 10° N
Cosmos 1833 Rocket 3.1 22:42:10 10° S 22:47:23 41° ESE 22:52:39 10° NE
ERS-1 Rocket 4.0 22:43:58 10° S 22:48:46 45° W 22:53:36 10° NNW
SL-08 RB Rocket 3.7 22:44:31 10° SSE 22:49:00 86° WSW 22:53:31 10° NNW
SPOT 1/Viking Rocket 3.6 22:48:10 10° SSE 22:53:21 90° E 22:58:33 10° NNW
Cosmos 2181 Rocket 4.0 22:47:38 10° S 22:53:59 81° E 23:00:16 10° NNE
USA 234 3.9 22:48:26 10° ENE 22:54:50 59° N 23:01:13 10° WNW
USA 245 3.0 22:55:22 10° S 22:57:37 40° WSW 22:59:47 10° NNW
Meteor 2-21 4.5 22:51:59 10° N 22:58:04 76° ENE 23:04:07 10° SSE
CARTOSAT-1 4.0 22:55:32 11° SE 22:59:35 51° ENE 23:03:47 10° N
Cosmos 389 Rocket 4.3 22:57:07 10° NNE 22:59:45 20° ENE 23:02:21 10° ESE
Cosmos 2058 Rocket 3.7 22:56:52 10° NNW 23:01:11 54° W 23:05:31 10° S
COSMOS 2487 2.4 22:59:29 10° SSW 23:03:04 82° ESE 23:06:40 10° NNE
Cosmos 1066 Rocket 4.2 23:02:42 10° S 23:08:13 71° E 23:13:55 10° NNE
Orbus 7S? 4.3 22:59:38 10° WNW 23:08:54 82° SSW 23:12:36 12° SE
ATLAS CENTAUR R/B 2.1 23:06:17 10° NNW 23:09:50 40° NE 23:13:19 10° ESE
IGS 5A 3.7 23:06:40 13° SSE 23:10:21 59° ENE 23:14:28 10° N
Cosmos 2360 Rocket 3.9 23:08:59 10° NNW 23:13:42 26° NE 23:18:24 10° E
Cosmos 1980 Rocket 2.2 23:09:50 10° NNW 23:15:33 85° WSW 23:20:31 14° SSE
Cosmos 1271 Rocket 3.0 23:12:47 10° N 23:16:39 60° ENE 23:19:47 15° SSE
ISS -3.9 23:13:33 10° WSW 23:16:51 73° S 23:20:09 10° E
Cosmos 1842 4.1 23:17:32 15° SSE 23:20:18 34° E 23:23:54 10° NNE
Cosmos 1812 Rocket 3.6 23:16:28 10° N 23:20:59 82° E 23:24:49 14° SSE
ARGOS 4.2 23:17:33 10° SSW 23:22:41 42° W 23:27:51 10° NNW
SL-8 Rocket 4.5 23:17:07 10° NNW 23:23:16 60° W 23:29:26 10° S
H-2A R/B 2.2 23:20:19 14° SSE 23:24:14 83° ENE 23:28:47 10° NNW
Cosmos 158 Rocket 4.5 23:19:47 10° S 23:24:46 43° ESE 23:29:52 10° NE
CZ-4C R/B 4.2 23:22:23 14° SE 23:24:59 34° ENE 23:28:23 10° N
Cosmos 2322 Rocket 2.7 23:21:35 10° NNW 23:27:12 53° NE 23:32:15 13° SE
Cosmos 1544 3.2 23:25:33 10° N 23:29:09 63° ENE 23:31:44 18° SSE
Cosmos 2366 rocket 4.2 23:23:59 10° NNW 23:30:08 70° W 23:36:11 10° S
CZ-4B R/B 4.3 23:27:08 10° NNE 23:31:49 36° E 23:35:25 16° SSE
Cosmos 1626 Rocket 3.5 23:30:42 10° S 23:35:02 88° WNW 23:39:23 10° N
Meteor 1-21 4.3 23:34:35 12° S 23:39:50 66° E 23:45:35 10° NNE
H-2A R/B 2.9 23:36:23 10° S 23:41:06 42° W 23:45:59 10° NNW
CZ-2C R/B 4.5 23:41:43 10° NE 23:45:24 18° E 23:48:25 12° ESE
Cosmos 1953 2.5 23:41:25 10° N 23:45:29 61° ENE 23:48:11 20° SSE
Cosmos 1953 Rocket 4.4 23:45:57 18° SE 23:48:38 35° E 23:52:41 10° NNE
Cosmos 1825 Rocket 4.0 23:46:06 19° SSE 23:48:54 46° E 23:53:04 10° NNE
Cosmos 1766 4.1 23:49:29 10° NNW 23:53:14 44° W 23:56:17 14° SSW
